This demonstration page uses our WeatherBlox Daily Observations layout. Learn more.

Left ArrowRight Arrow

Hourly Observations for June 24, 2019

Temp ( °F °C ) Dew Point ( °F °C ) Humidity (%) Winds ( mph kmh ) Pressure ( in mb ) Visibility ( mi km ) Precip ( " mm )
12:59 am 00:59 Clear 71 21.7 60 15.6 68 68 SW 8 13 29.98 1015 10 16 0.00 0.00
1:59 am 01:59 Clear 70 21.1 61 16.1 73 73 SSW 7 11 29.96 1015 10 16 0.00 0.00
2:59 am 02:59 Clear 69 20.6 61 16.1 76 76 SW 6 9 29.96 1015 10 16 0.00 0.00
3:59 am 03:59 Mostly Clear 69 20.6 62 16.7 78 78 SSW 5 7 29.95 1014 10 16 0.00 0.00
4:59 am 04:59 Mostly Clear 68 20 62 16.7 81 81 SSW 5 7 29.95 1014 10 16 0.00 0.00
5:59 am 05:59 Partly Cloudy 68 20 63 17.2 84 84 SSW 6 9 29.95 1014 10 16 0.00 0.00
6:59 am 06:59 Mostly Sunny 71 21.7 65 18.3 81 81 SSW 5 7 29.96 1014 10 16 0.00 0.00
7:59 am 07:59 Mostly Sunny 75 23.9 66 18.9 74 74 SW 5 7 29.96 1015 10 16 0.00 0.00
8:59 am 08:59 Partly Cloudy 77 25 67 19.4 71 71 WSW 9 15 29.96 1015 10 16 0.00 0.00
9:59 am 09:59 Partly Cloudy 80 26.7 68 20 67 67 SSW 9 15 29.96 1014 10 16 0.00 0.00
10:59 am 10:59 Partly Cloudy 81 27.2 69 20.6 67 67 SSW 7 11 29.96 1014 10 16 0.00 0.00
11:59 am 11:59 Partly Cloudy 84 28.9 68 20 59 59 S 6 9 29.95 1014 10 16 0.00 0.00
12:59 pm 12:59 Partly Cloudy 86 30 66 18.9 51 51 SSW 5 7 29.93 1014 10 16 0.00 0.00
1:59 pm 13:59 Partly Cloudy 88 31.1 68 20 52 52 SSW 7 11 29.91 1013 10 16 0.00 0.00
2:59 pm 14:59 Partly Cloudy 88 31.1 69 20.6 54 54 SW 9 15 29.90 1013 10 16 0.00 0.00
3:59 pm 15:59 Mostly Cloudy 89 31.7 70 21.1 53 53 SW 10 17 29.88 1012 10 16 0.00 0.00
4:59 pm 16:59 Mostly Cloudy 89 31.7 71 21.7 55 55 WSW 12 19 29.86 1011 10 16 0.00 0.00
5:59 pm 17:59 Mostly Cloudy 89 31.7 71 21.7 55 55 SSW 10 17 29.85 1011 10 16 0.00 0.00
6:59 pm 18:59 Partly Cloudy 88 31.1 71 21.7 57 57 SSW 10 17 29.85 1011 10 16 0.00 0.00
7:59 pm 19:59 Partly Cloudy 86 30 70 21.1 59 59 VRB 6 9 29.85 1011 10 16 0.00 0.00
8:59 pm 20:59 Partly Cloudy 84 28.9 70 21.1 63 63 S 7 11 29.85 1011 10 16 0.00 0.00
9:59 pm 21:59 Partly Cloudy 83 28.3 69 20.6 63 63 S 7 11 29.87 1011 10 16 0.00 0.00
10:59 pm 22:59 Partly Cloudy 81 27.2 72 22.2 74 74 S 9 15 29.86 1011 10 16 0.00 0.00
11:59 pm 23:59 Partly Cloudy 79 26.1 71 21.7 77 77 S 10 17 29.86 1011 10 16 0.00 0.00

Powered by AerisWeather